This is the latest recevied weather packets stored in our database for station/object N3WPH. If no packets are shown the sender has not sent any weather packets the latest 10 day(s).
| Time | Temp. | Humidity | Pressure | Rain* | Wind** | Luminosity | Snow |
|---|---|---|---|---|---|---|---|
| 1777507304 | 10.56° C | 95% | 1007.9 hPa | 6.6 mm | - | 0 W/m² | - |
| 1777507001 | 10.56° C | 95% | 1007.8 hPa | 7.11 mm | - | 0 W/m² | - |
| 1777506698 | 10.56° C | 95% | 1008 hPa | 7.11 mm | - | 0 W/m² | - |
| 1777506394 | 10.56° C | 95% | 1007.7 hPa | 6.1 mm | - | 1 W/m² | - |
| 1777506091 | 10.56° C | 95% | 1007.7 hPa | 4.83 mm | - | 1 W/m² | - |
| 1777505786 | 10.56° C | 95% | 1007.6 hPa | 4.32 mm | - | 1 W/m² | - |
| 1777505484 | 11.11° C | 95% | 1007.9 hPa | 3.05 mm | - | 1 W/m² | - |
| 1777505180 | 11.11° C | 94% | 1007.6 hPa | 1.78 mm | - | 2 W/m² | - |
| 1777504877 | 11.11° C | 94% | 1007.7 hPa | 0 mm | - | 3 W/m² | - |
| 1777504574 | 11.11° C | 93% | 1007.9 hPa | 0 mm | - | 5 W/m² | - |
| 1777504269 | 11.11° C | 92% | 1008.1 hPa | 0 mm | - | 4 W/m² | - |
| 1777503965 | 11.11° C | 93% | 1008 hPa | 0 mm | - | 3 W/m² | - |
| 1777503662 | 11.11° C | 93% | 1008.1 hPa | 1.78 mm | - | 3 W/m² | - |
| 1777503359 | 11.11° C | 93% | 1007.9 hPa | 1.78 mm | - | 3 W/m² | - |
| 1777503055 | 11.11° C | 93% | 1008.1 hPa | 1.27 mm | - | 4 W/m² | - |
| 1777502753 | 11.11° C | 93% | 1007.6 hPa | 1.27 mm | - | 6 W/m² | - |
| 1777502449 | 11.11° C | 95% | 1007.6 hPa | 1.27 mm | - | 10 W/m² | - |
| 1777502146 | 11.11° C | 96% | 1007.9 hPa | 0 mm | - | 13 W/m² | - |
| 1777501844 | 11.11° C | 96% | 1008 hPa | 0 mm | - | 14 W/m² | - |
| 1777501541 | 11.11° C | 96% | 1008 hPa | 0 mm | - | 17 W/m² | - |
| 1777501238 | 11.11° C | 96% | 1008.3 hPa | 0 mm | - | 12 W/m² | - |
| 1777500936 | 11.11° C | 95% | 1008.6 hPa | 0 mm | - | 10 W/m² | - |
| 1777500633 | 11.11° C | 95% | 1008.2 hPa | 0 mm | - | 9 W/m² | - |
| 1777500329 | 11.11° C | 95% | 1008.2 hPa | 1.78 mm | - | 9 W/m² | - |
| 1777500026 | 11.67° C | 95% | 1008.5 hPa | 1.78 mm | - | 7 W/m² | - |
* Rain latest hour (hover to see other rain measurements)
** Current wind speed in m/s (hover to see current wind gust speed)